Bad Axe, MI

4:44 AM EDT on April 24, 2017 (GMT -0400)
Huron County Memorial

Weather History for KBAX - December, 2013

Change the Weather History Date:

Friday, December 13, 2013

  Actual Average (KP58) Record (KP58)
Temperature  
Mean Temperature 20 °F -  
Max Temperature 22 °F 34 °F 57 °F (2015)
Min Temperature 17 °F 25 °F 10 °F (2000)
Degree Days  
Heating Degree Days 45    
Moisture  
Dew Point 15 °F    
Average Humidity 81    
Maximum Humidity 89    
Minimum Humidity 71    
Precipitation  
Precipitation 0.00 in - - ()
Sea Level Pressure  
Sea Level Pressure 30.19 in    
Wind  
Wind Speed 9 mph (NNW)    
Max Wind Speed 17 mph    
Max Gust Speed 23 mph    
Visibility 7 miles    
Events Snow    
Averages and records for this station are not official NWS values.
T = Trace of Precipitation, MM = Missing Value Source: NWS Daily Summary

Daily Weather History Graph

Daily Weather History Graph

Search for Another Location

Airport or City:

Trip Planner

Search our weather history database for the weather conditions in past years. The results will help you decide how hot, cold, wet, or windy it might be!

Date:

Astronomy

Dec. 13, 2013 Rise Set
Actual Time 7:57 AM EST 4:54 PM EST
Civil Twilight 7:24 AM EST 5:27 PM EST
Nautical Twilight 6:48 AM EST 6:04 PM EST
Astronomical Twilight 6:13 AM EST 6:39 PM EST
Moon 2:41 PM EST (12/13) 4:14 AM EST (12/13)
Length of Visible Light 10h 02m
Length of Day
8h 57m
Waxing Gibbous, 88% of the Moon is Illuminated
Dec 13
Waxing Gibbous
Dec 17
Full
Dec 25
Last Quarter
Jan 1
New
Jan 7
First Quarter

Hourly Weather History & Observations

Time (EST) Temp. Windchill Dew Point Humidity Pressure Visibility Wind Dir Wind Speed Gust Speed Precip Events Conditions
12:14 AM 19.0 °F 6.8 °F 14.0 °F 81% 30.07 in 10.0 mi West 11.5 mph 19.6 mph N/A   Overcast
12:34 AM 19.2 °F 5.3 °F 14.4 °F 81% 30.06 in 10.0 mi WSW 15.0 mph 18.4 mph N/A   Overcast
12:53 AM 19.4 °F 6.6 °F 14.7 °F 82% 30.06 in 10.0 mi West 12.7 mph 19.6 mph N/A   Overcast
1:14 AM 19.8 °F 7.7 °F 14.9 °F 81% 30.06 in 10.0 mi West 11.5 mph - N/A   Overcast
1:34 AM 19.9 °F 7.9 °F 15.4 °F 83% 30.05 in 10.0 mi West 11.5 mph 17.3 mph N/A   Overcast
1:53 AM 20.1 °F 8.1 °F 15.8 °F 83% 30.05 in 10.0 mi West 11.5 mph - N/A   Overcast
2:14 AM 20.3 °F 8.3 °F 15.8 °F 83% 30.06 in 10.0 mi WSW 11.5 mph 20.7 mph N/A   Overcast
2:33 AM 20.7 °F 7.6 °F 16.2 °F 83% 30.06 in 10.0 mi West 13.8 mph - N/A   Overcast
2:53 AM 21.0 °F 8.6 °F 16.3 °F 82% 30.07 in 10.0 mi West 12.7 mph 17.3 mph N/A   Overcast
3:14 AM 21.0 °F 9.3 °F 16.5 °F 83% 30.07 in 10.0 mi West 11.5 mph - N/A   Overcast
3:33 AM 21.2 °F 9.5 °F 16.7 °F 83% 30.07 in 10.0 mi West 11.5 mph 16.1 mph N/A   Overcast
3:53 AM 21.2 °F 10.9 °F 16.7 °F 83% 30.07 in 7.0 mi West 9.2 mph 17.3 mph N/A Snow Light Snow
4:14 AM 21.2 °F 10.1 °F 16.5 °F 82% 30.07 in 10.0 mi West 10.4 mph 20.7 mph N/A   Overcast
4:33 AM 22.1 °F 8.0 °F 15.6 °F 76% 30.08 in 4.0 mi West 17.3 mph 23.0 mph N/A Snow Light Snow
4:53 AM 21.9 °F 10.4 °F 15.8 °F 77% 30.08 in 7.0 mi West 11.5 mph 19.6 mph N/A Snow Light Snow
5:14 AM 21.6 °F 11.3 °F 16.7 °F 82% 30.08 in 4.0 mi West 9.2 mph 18.4 mph N/A Snow Light Snow
5:33 AM 21.2 °F 10.9 °F 16.7 °F 83% 30.09 in 1.5 mi West 9.2 mph 18.4 mph N/A Snow Light Snow
5:53 AM 21.2 °F 10.9 °F 17.2 °F 85% 30.09 in 5.0 mi West 9.2 mph - N/A Snow Light Snow
6:14 AM 21.2 °F 11.7 °F 17.2 °F 85% 30.09 in 7.0 mi WNW 8.1 mph - N/A Snow Light Snow
6:33 AM 21.2 °F 10.1 °F 16.7 °F 83% 30.10 in 7.0 mi West 10.4 mph - N/A Snow Light Snow
6:53 AM 21.2 °F 10.9 °F 15.8 °F 80% 30.12 in 10.0 mi West 9.2 mph - N/A Snow Light Snow
7:14 AM 21.0 °F 12.4 °F 15.8 °F 80% 30.12 in 7.0 mi West 6.9 mph - N/A Snow Light Snow
7:33 AM 20.7 °F 10.2 °F 15.4 °F 80% 30.12 in 10.0 mi West 9.2 mph - N/A Snow Light Snow
7:53 AM 20.3 °F 12.5 °F 14.9 °F 80% 30.13 in 10.0 mi West 5.8 mph - N/A   Mostly Cloudy
8:14 AM 20.3 °F 10.6 °F 14.9 °F 80% 30.14 in 10.0 mi West 8.1 mph - N/A   Overcast
8:33 AM 20.5 °F 11.7 °F 14.9 °F 79% 30.15 in 10.0 mi West 6.9 mph - N/A   Overcast
8:53 AM 20.8 °F 12.1 °F 15.3 °F 79% 30.17 in 10.0 mi West 6.9 mph - N/A Snow Light Snow
9:14 AM 21.0 °F 11.4 °F 15.3 °F 78% 30.17 in 3.0 mi WNW 8.1 mph - N/A Snow Light Snow
9:33 AM 21.0 °F 14.6 °F 15.8 °F 80% 30.18 in 1.8 mi WNW 4.6 mph - N/A Snow Light Snow
9:53 AM 21.2 °F 11.7 °F 16.3 °F 82% 30.19 in 1.2 mi WNW 8.1 mph - N/A Snow Light Snow
10:14 AM 20.3 °F 12.5 °F 16.7 °F 86% 30.20 in 0.8 mi NW 5.8 mph - N/A Snow Snow
10:33 AM 20.3 °F 13.8 °F 17.1 °F 87% 30.20 in 1.5 mi North 4.6 mph - N/A Snow Light Snow
10:54 AM 19.9 °F 11.1 °F 16.5 °F 87% 30.20 in 1.2 mi North 6.9 mph - N/A Snow Light Snow
11:13 AM 19.8 °F 10.8 °F 15.3 °F 83% 30.20 in 4.0 mi North 6.9 mph - N/A Snow Light Snow
11:33 AM 19.9 °F 13.4 °F 14.9 °F 81% 30.20 in 5.0 mi North 4.6 mph - N/A Snow Light Snow
11:54 AM 20.1 °F 13.6 °F 14.7 °F 80% 30.20 in 4.0 mi North 4.6 mph - N/A Snow Light Snow
12:13 PM 20.3 °F 12.5 °F 13.6 °F 75% 30.20 in 10.0 mi North 5.8 mph - N/A   Overcast
12:33 PM 20.3 °F 12.5 °F 13.1 °F 74% 30.20 in 10.0 mi North 5.8 mph - N/A   Overcast
12:54 PM 20.3 °F 12.5 °F 13.6 °F 75% 30.20 in 10.0 mi NNW 5.8 mph - N/A Snow Light Snow
1:13 PM 20.3 °F 13.8 °F 13.1 °F 74% 30.20 in 10.0 mi North 4.6 mph - N/A   Overcast
1:33 PM 20.3 °F 13.8 °F 13.3 °F 74% 30.20 in 10.0 mi North 4.6 mph - N/A Snow Light Snow
1:54 PM 20.3 °F 12.5 °F 13.1 °F 74% 30.20 in 10.0 mi NNW 5.8 mph - N/A Snow Light Snow
2:13 PM 20.3 °F 11.5 °F 13.1 °F 74% 30.20 in 7.0 mi NNW 6.9 mph - N/A Snow Light Snow
2:33 PM 20.3 °F 11.5 °F 13.6 °F 75% 30.20 in 7.0 mi North 6.9 mph - N/A Snow Light Snow
2:54 PM 20.3 °F 9.8 °F 12.9 °F 73% 30.20 in 10.0 mi North 9.2 mph - N/A   Overcast
3:13 PM 20.3 °F 11.5 °F 12.2 °F 71% 30.22 in 10.0 mi North 6.9 mph - N/A   Overcast
3:33 PM 20.1 °F 11.3 °F 12.0 °F 71% 30.23 in 10.0 mi North 6.9 mph - N/A   Overcast
3:54 PM 19.8 °F 9.9 °F 12.2 °F 72% 30.23 in 10.0 mi North 8.1 mph - N/A   Overcast
4:13 PM 19.8 °F 13.2 °F 12.2 °F 72% 30.25 in 10.0 mi North 4.6 mph - N/A   Overcast
4:33 PM 19.8 °F 10.8 °F 12.6 °F 74% 30.26 in 10.0 mi NNE 6.9 mph - N/A   Overcast
4:54 PM 19.4 °F 11.5 °F 12.6 °F 75% 30.26 in 10.0 mi NNE 5.8 mph - N/A   Overcast
5:13 PM 19.4 °F 11.5 °F 12.2 °F 74% 30.27 in 10.0 mi NNE 5.8 mph - N/A   Overcast
5:33 PM 19.2 °F 10.2 °F 12.7 °F 76% 30.27 in 10.0 mi NNE 6.9 mph - N/A Snow Light Snow
5:54 PM 19.0 °F 8.2 °F 14.0 °F 81% 30.27 in 10.0 mi NNE 9.2 mph - N/A Snow Light Snow
6:13 PM 18.7 °F 8.6 °F 14.7 °F 85% 30.28 in 5.0 mi NNE 8.1 mph - N/A Snow Light Snow
6:33 PM 18.5 °F 11.7 °F 14.7 °F 85% 30.29 in 10.0 mi NNE 4.6 mph - N/A Snow Light Snow
6:54 PM 18.5 °F 10.4 °F 14.4 °F 84% 30.29 in 10.0 mi NE 5.8 mph - N/A Snow Light Snow
7:13 PM 18.5 °F 9.3 °F 14.0 °F 83% 30.29 in 10.0 mi NNE 6.9 mph - N/A   Overcast
7:33 PM 18.5 °F 8.4 °F 14.0 °F 83% 30.29 in 10.0 mi NE 8.1 mph - N/A Snow Light Snow
7:54 PM 18.3 °F 7.3 °F 14.5 °F 85% 30.29 in 7.0 mi NNE 9.2 mph - N/A Snow Light Snow
8:13 PM 18.1 °F 8.9 °F 14.7 °F 86% 30.30 in 5.0 mi NNE 6.9 mph - N/A Snow Light Snow
8:33 PM 18.1 °F 7.9 °F 14.9 °F 87% 30.30 in 5.0 mi NNE 8.1 mph - N/A Snow Light Snow
8:54 PM 18.0 °F 8.7 °F 14.5 °F 86% 30.31 in 3.0 mi NNE 6.9 mph - N/A Snow Light Snow
9:13 PM 18.0 °F 12.7 °F 14.7 °F 87% 30.32 in 3.0 mi NE 3.5 mph - N/A Snow Light Snow
9:33 PM 18.0 °F 11.1 °F 14.9 °F 88% 30.32 in 3.0 mi NNE 4.6 mph - N/A Snow Light Snow
9:54 PM 18.1 °F 12.9 °F 14.9 °F 87% 30.32 in 2.5 mi NNE 3.5 mph - N/A Snow Light Snow
10:13 PM 18.1 °F 10.0 °F 15.3 °F 88% 30.33 in 4.0 mi NNE 5.8 mph - N/A Snow Light Snow
10:33 PM 18.3 °F 10.2 °F 15.4 °F 89% 30.32 in 1.8 mi NE 5.8 mph - N/A Snow Light Snow
10:54 PM 18.5 °F 11.7 °F 15.8 °F 89% 30.32 in 1.8 mi NE 4.6 mph - N/A Snow Light Snow
11:13 PM 18.3 °F 10.2 °F 15.4 °F 89% 30.32 in 1.8 mi ENE 5.8 mph - N/A Snow Light Snow
11:33 PM 18.0 °F 12.7 °F 14.9 °F 88% 30.33 in 1.8 mi ENE 3.5 mph - N/A Snow Light Snow
11:54 PM 17.6 °F 9.3 °F 14.5 °F 88% 30.33 in 3.0 mi East 5.8 mph - N/A Snow Light Snow